Weather History for West Palm Beach, FL

Change the Weather History Date:

Saturday, August 3, 2013

  Actual Average Record
Temperature  
Mean Temperature 81 °F 83 °F  
Max Temperature 86 °F 91 °F 96 °F (1958)
Min Temperature 76 °F 76 °F 65 °F (1919)
Degree Days  
Heating Degree Days 0 0  
Month to date heating degree days 0 0  
Since 1 June heating degree days 0 0  
Since 1 July heating degree days 0 0  
Cooling Degree Days 16 18  
Month to date cooling degree days 57 54  
Year to date cooling degree days 2307 2202  
Since 1 June cooling degree days 1122 1093  
Growing Degree Days 30 (Base 50)    
Moisture  
Dew Point 72 °F    
Average Humidity 74    
Maximum Humidity 82    
Minimum Humidity 65    
Precipitation  
Precipitation 0.09 in 0.22 in 2.84 in (1933)
Month to date precipitation 0.31 0.66  
Year to date precipitation 43.83 33.43  
Snow  
Snow 0.00 in - - ()
Month to date snowfall 0.0  
Since 1 June snowfall 0.0  
Since 1 July snowfall 0.0  
Snow Depth 0.00 in    
Sea Level Pressure  
Sea Level Pressure 30.09 in    
Wind  
Wind Speed 4 mph (South)    
Max Wind Speed 30 mph    
Max Gust Speed 37 mph    
Visibility 9 miles    
Events Rain , Thunderstorm    
T = Trace of Precipitation, MM = Missing Value Source: NWS Daily Summary

Daily Weather History Graph

Daily Weather History Graph

Search for Another Location

Airport:

Trip Planner

Search our weather history database for the weather conditions in past years. The results will help you decide how hot, cold, wet, or windy it might be!

Date:

Astronomy

Aug. 03, 2013 Rise Set
Actual Time 6:46 AM EDT 8:06 PM EDT
Civil Twilight 6:21 AM EDT 8:31 PM EDT
Nautical Twilight 5:51 AM EDT 9:00 PM EDT
Astronomical Twilight 5:21 AM EDT 9:31 PM EDT
Moon 3:58 AM EDT (8/3) 5:44 PM EDT (8/3)
Length of Visible Light 14h 09m
Length of Day
13h 20m
Waning Crescent, 9% of the Moon is Illuminated
Aug 3
Waning Crescent
Aug 6
New
Aug 14
First Quarter
Aug 20
Full
Aug 28
Last Quarter

Hourly Weather History & Observations

Time (EDT) Temp. Heat Index Dew Point Humidity Pressure Visibility Wind Dir Wind Speed Gust Speed Precip Events Conditions
12:53 AM 79.0 °F - 71.1 °F 77% 30.05 in 10.0 mi SW 3.5 mph - N/A   Mostly Cloudy
1:53 AM 79.0 °F - 72.0 °F 79% 30.05 in 10.0 mi SSW 4.6 mph - N/A   Mostly Cloudy
2:53 AM 80.1 °F 84.2 °F 73.0 °F 79% 30.05 in 10.0 mi Calm Calm - N/A   Mostly Cloudy
3:53 AM 80.1 °F 84.2 °F 73.0 °F 79% 30.03 in 10.0 mi South 3.5 mph - N/A   Mostly Cloudy
4:53 AM 80.1 °F 84.2 °F 73.0 °F 79% 30.04 in 10.0 mi Calm Calm - N/A   Mostly Cloudy
5:53 AM 80.1 °F 84.2 °F 73.0 °F 79% 30.04 in 10.0 mi SSE 3.5 mph - N/A   Scattered Clouds
6:53 AM 81.0 °F 85.8 °F 73.0 °F 77% 30.06 in 10.0 mi SSE 4.6 mph - N/A   Scattered Clouds
7:53 AM 81.0 °F 85.8 °F 73.0 °F 77% 30.08 in 10.0 mi SSE 5.8 mph - N/A   Mostly Cloudy
8:53 AM 82.9 °F 88.8 °F 73.0 °F 72% 30.09 in 10.0 mi SSE 8.1 mph - N/A   Mostly Cloudy
9:53 AM 82.0 °F 85.9 °F 70.0 °F 67% 30.10 in 10.0 mi South 6.9 mph - N/A   Mostly Cloudy
10:53 AM 81.0 °F 84.4 °F 70.0 °F 69% 30.11 in 10.0 mi SSE 3.5 mph - N/A   Mostly Cloudy
11:53 AM 82.0 °F 87.4 °F 73.0 °F 74% 30.11 in 10.0 mi South 3.5 mph - N/A   Mostly Cloudy
12:53 PM 84.0 °F 91.9 °F 75.0 °F 74% 30.12 in 10.0 mi SE 5.8 mph - 0.00 in Rain Light Rain
1:53 PM 84.0 °F 91.2 °F 73.9 °F 72% 30.11 in 10.0 mi SE 4.6 mph - 0.00 in   Mostly Cloudy
2:53 PM 86.0 °F 93.8 °F 73.9 °F 67% 30.09 in 10.0 mi South 4.6 mph - 0.00 in   Mostly Cloudy
3:14 PM 86.0 °F 95.1 °F 75.2 °F 70% 30.10 in 10.0 mi South 8.1 mph - 0.00 in Rain , Thunderstorm Light Thunderstorms and Rain
3:41 PM 78.8 °F - 68.0 °F 69% 30.12 in 2.0 mi South 19.6 mph 28.8 mph 0.00 in Rain , Thunderstorm Heavy Thunderstorms and Rain
3:53 PM 75.9 °F - 69.1 °F 79% 30.10 in 2.0 mi SSE 10.4 mph - 0.06 in Rain , Thunderstorm Heavy Thunderstorms and Rain
4:02 PM 75.2 °F - 69.8 °F 83% 30.10 in 4.0 mi South 9.2 mph - 0.02 in Rain , Thunderstorm Thunderstorms and Rain
4:27 PM 75.2 °F - 69.8 °F 83% 30.09 in 10.0 mi SSW 9.2 mph - 0.02 in Rain Light Rain
4:53 PM 75.9 °F - 68.0 °F 76% 30.10 in 10.0 mi South 10.4 mph - 0.02 in   Mostly Cloudy
5:53 PM 77.0 °F - 70.0 °F 79% 30.10 in 10.0 mi WSW 4.6 mph - 0.01 in Rain Light Rain
6:53 PM 78.1 °F - 71.1 °F 79% 30.08 in 10.0 mi Calm Calm - 0.00 in   Overcast
7:53 PM 77.0 °F - 71.1 °F 82% 30.09 in 10.0 mi WNW 4.6 mph - N/A   Mostly Cloudy
8:53 PM 77.0 °F - 72.0 °F 84% 30.09 in 10.0 mi Calm Calm - N/A   Mostly Cloudy
9:53 PM 77.0 °F - 72.0 °F 84% 30.10 in 10.0 mi SSE 3.5 mph - N/A   Overcast
10:53 PM 78.1 °F - 72.0 °F 81% 30.12 in 10.0 mi Calm Calm - N/A   Overcast
11:53 PM 78.1 °F - 72.0 °F 81% 30.12 in 10.0 mi Calm Calm - N/A   Mostly Cloudy